{"data":{"norad_id":33499,"intl_designator":"2009-002H","name":"KKS-1 (KISEKI)","alt_names":[],"object_type":"PAYLOAD","status":"ACTIVE","operator":null,"country":"JPN","launch_date":"2009-01-23","launch_site_code":"TANSC","launch_vehicle":null,"mission":null,"orbit_class":"UNKNOWN","rcs_meters":0.0853,"size_class":null,"mass_kg":null,"dimensions":null,"purposes":["comms"],"wikipedia_slug":null,"has_3d_model":false,"image_url":null,"decayed_at":null,"tle_current":{"epoch":"2026-05-25T02:45:53.680032Z","epoch_age_seconds":75486,"freshness":"FRESH","line1":"1 33499U 09002H   26145.11520463  .00001171  00000+0  15071-3 0  9995","line2":"2 33499  98.1194  67.1926 0008259  15.6923 344.4544 14.83053081932772","mean_motion":14.83053081,"eccentricity":0.0008259,"inclination_deg":98.1194,"raan_deg":67.1926,"arg_perigee_deg":15.6923,"mean_anomaly_deg":344.4544,"bstar":0.00015071,"rev_number":93277,"period_min":97.096996624627,"perigee_km":613.9240618132,"apogee_km":625.48309488052,"semimajor_km":6997.8405783469,"source":"CELESTRAK","updated_at":"2026-05-25T13:38:23.283130Z"}}}